User: anonymous   Login
Location: Unspecified
(0.0000°N, 0.0000°E)
Time: 21:56:53
(UTC+00:00)
Language:

Metsat - Orbit

View from above orbital plane
View from above orbital plane
View from above satellite
View from above satellite

Ground track
Ground track

The orbit data is extracted from the following two-line orbital elements,

1 26382U 00032A   17080.60523216 +.00000096 +00000-0 +00000-0 0  9992
2 26382 009.8252 041.0761 0005930 236.7205 172.8902 01.00070777061151
Epoch (UTC): 21 March 2017 14:31:32
Eccentricity: 0.0005930
inclination: 9.8252°
perigee height: 35817 km
apogee height: 35868 km
right ascension of ascending node: 41.0761°
argument of perigee: 236.7205°
revolutions per day: 1.00070777
mean anomaly at epoch: 172.8902°
orbit number at epoch: 6115

The dashed part of the orbit path shows where the satellite is in the earth's shadow,  

DLR